Regional Weather Roundup
Issued by NWS Grand Forks, ND

Home | Current Version | Previous Version | Text Only | Print | Product List | Glossary Off
Versions: 1 2 3 4 5 6 7 8 9 10 11 12 13 14 15 16 17 18 19 20 21 22 23 24 25 26 27 28 29 30 31 32 33 34 35 36 37 38 39 40 41 42 43 44 45 46 47 48 49 50

000
ASUS43 KFGF 200410
RWRFGF
PRAIRIE TO PINES  WEATHER ROUNDUP
NATIONAL WEATHER SERVICE EASTERN NORTH DAKOTA/GRAND FORKS ND
1000 PM CST FRI JAN 19 2018

 **SATELLITE DATA USED TO AUGMENT SKY COVER AT AUTOMATED STATIONS**
 *****  WEATHER ACROSS EASTERN NORTH DAKOTA  *****

CITY           SKY/WX    TMP DP  RH WIND       PRES   REMARKS
GRAND FORKS    FAIR      33  29  85 SW10      29.64R WCI  25
GRAND FRKS AFB FAIR      33  28  83 W8        29.64R
DEVILS LAKE    FAIR      27  24  89 SW10      29.64R WCI  17
FARGO          FAIR      32  28  85 W10       29.67R WCI  24
WAHPETON ARPT  FAIR      28  27  93 W7        29.70R WCI  21
$$

 ***** WEATHER ACROSS CENTRAL AND WESTERN NORTH DAKOTA  *****

CITY           SKY/WX    TMP DP  RH WIND       PRES   REMARKS
BISMARCK       CLOUDY    36  32  85 SW3       29.72R
MINOT          FAIR      34  25  69 W14       29.64R WCI  25
JAMESTOWN      FAIR      32  27  81 W7        29.68R
MINOT AFB      FAIR      30  24  78 W14       29.63R WCI  20
GARRISON         N/A     32  25  75 W9        29.66R WCI  24
WILLISTON      FAIR      32  25  75 SW8       29.69S WCI  25
DICKINSON      MOCLDY    34  30  85 W12       29.70R
HETTINGER      CLOUDY    34  31  88 W8        29.75R
$$

 *****  OTHER AIRPORT OBSERVATIONS IN OUR AREA  *****

CITY           SKY/WX    TMP DP  RH WIND       PRES   REMARKS
WALHALLA       FAIR      36  28  75 W8G14     29.59R
GRAFTON AIRPOR FAIR      30  28  93 SW12      29.63R WCI  21
VALLEY CITY AR FAIR      32  32 100 W15       29.69S WCI  22
CANDO          FAIR      30  30 100 W8        29.63S WCI  23
CAVALIER APRT    N/A     36  28  75 W13       29.58R
GWINNER          N/A     28  27  93 W9        29.71R WCI  20
SHEYENNE NWR     N/A     32  28  86 W6        29.95S
ROLLA          FAIR      32  27  80 W14       29.59S WCI  22
 ***** THE ABOVE OBSERVATIONS ARE NON NWS ARE NOT QUALITY
       CONTROLLED AND MAY MIS-REPORT RAIN FOR SNOW...
$$

  *****  WEATHER ACROSS NORTHERN MINNESOTA  *****

CITY           SKY/WX    TMP DP  RH WIND       PRES   REMARKS
FLAG ISLAND    CLOUDY    34  28  80 W5        29.53R
WARROAD        CLOUDY    36  30  80 SW9       29.56R
ROSEAU         FAIR      30  27  86 SW6       29.57R WCI  24
HALLOCK        FAIR      21  19  93 SW12      29.60R WCI   9
THF RVR FALLS  FAIR      30  28  92 SW10      29.63R WCI  21
BAUDETTE       MOCLDY    31  29  92 CALM      29.54R
WASKISH        MOCLDY    32  30  93 SW10      29.58R WCI  24
CROOKSTON      FAIR      34  28  80 W13       29.64R WCI  25
STEPHEN NDAWN    N/A     30  27  86 SW5         N/A
GREENBUSH NDAW   N/A     30  27  86 SW8         N/A  WCI  23
$$
  *****  WEATHER ACROSS CENTRAL AND WEST MINNESOTA  *****

CITY           SKY/WX    TMP DP  RH WIND       PRES   REMARKS
FOSSTON        FAIR      27  25  93 SW8       29.64R WCI  18
BEMIDJI        FAIR      30  28  91 W6        29.61R WCI  24
PARK RAPIDS    FAIR      31  27  85 W10       29.63R WCI  22
ELBOW LAKE     FAIR      29  28  94 NW6       29.69R WCI  23
WADENA         FAIR      27  25  93 W7        29.66R WCI  19
DETROIT LAKES  FAIR      34  30  86 W10       29.67R
MOORHEAD       FAIR      32  27  80 W9        29.69R WCI  24
FERGUS FALLS   FAIR      27  27 100 W3        29.69R FOG
MORRIS MN      FAIR      32  28  86 NW8       29.68R WCI  25
STAPLES        FAIR      27  25  93 W8        29.65R WCI  18
$$
  *****  WEATHER ELSEWHERE ACROSS MINNESOTA  *****

CITY           SKY/WX    TMP DP  RH WIND       PRES   REMARKS
DULUTH         FAIR      37  29  72 NW14      29.55R
INTRNTL FALLS  FAIR      33  27  78 W7        29.52R
ELY            CLOUDY    36  30  80 W14       29.51R
CLOQUET        FAIR      36  27  69 W7        29.58R
WHEATON        NOT AVBL
BRAINERD       FAIR      36  29  75 W8        29.64R
HIBBING        FAIR      34  28  79 W7G17     29.57R
ALEXANDRIA     FAIR      34  29  82 NW9       29.67R
SAINT CLOUD    FAIR      35  30  82 W6        29.65R
MINNEAPOLIS    MOCLDY    38  32  79 W3        29.66R
$$

  *****  WEATHER ACROSS SOUTH DAKOTA  *****

CITY           SKY/WX    TMP DP  RH WIND       PRES   REMARKS
SIOUX FALLS    CLOUDY    35  31  85 CALM      29.74R
BROOKINGS      FAIR      34  29  82 W7        29.73R
WATERTOWN      FAIR      32  29  88 W6        29.71R
HURON          FAIR      30  27  88 W5        29.74S
SISSETON         N/A     33  27  78 NW9       29.69R
ABERDEEN       FAIR      23  21  92 SW6       29.73R WCI  16
MITCHELL       FAIR      33  30  88 W5        29.77R
PIERRE         FAIR      29  28  96 NW8       29.76R WCI  21
MOBRIDGE       CLOUDY    35  30  82 CALM      29.72R
RAPID CITY     CLOUDY    33  30  88 CALM      29.76R
$$

  *****  SOME WEATHER IN NEARBY STATES *****

CITY           SKY/WX    TMP DP  RH WIND       PRES   REMARKS
GLASGOW MT     FAIR      29  23  78 SW6       29.71R WCI  23
GREAT FALLS MT FAIR      27  18  69 SW14      29.77R WCI  16
CHEYENNE WY    FAIR      42  18  37 CALM      29.76F
SCOTTSBLUFF NE FAIR      36  30  79 E7        29.75R
OMAHA NE       MOCLDY    33  27  78 SE8       29.75S
DES MOINES IA  MOCLDY    40  28  62 SW9       29.76R
DAVENPORT IA   FAIR      42  28  57 SW15      29.78R
CHICAGO IL     CLOUDY    40  28  62 SW20G28   29.74R
EAU CLAIRE WI  FAIR      34  29  82 SW5       29.63R
LA CROSSE WI   FAIR      34  28  79 S5        29.67R
$$

  *****  SOME NATIONAL WEATHER *****

CITY           SKY/WX    TMP DP  RH WIND       PRES   REMARKS
LA GUARDIA NY  FAIR      39  19  44 SW9       29.95F
RALEIGH NC     FAIR      35  24  64 CALM      30.17S
ATLANTA GA     FAIR      38  15  39 W3        30.25R
NEW ORLEANS LA MOCLDY    46  34  62 E6        30.28R
OKLAHOMA CITY  MOCLDY    46  41  82 S21       29.90R
ALBUQUERQUE NM FAIR      40  13  33 E3        30.00S
SALT LAKE CITY LGT SNOW  35  33  92 N8        29.96S VSB 1
LOS ANGELES CA MOCLDY    58  48  69 SW9       29.92S
BOISE ID       FAIR      35  25  66 W5        29.99R
SEATTLE WA     CLOUDY    45  37  73 S12       29.90R
$$

*** WEATHER ACROSS MANITOBA...SASKATCHEWAN AND ONTARIO ***
                ***ONTARIO***

CITY           SKY/WX    TMP DP  RH WIND       PRES   REMARKS
GERALDTON      DRIZZLE   34  30  86 NW9       29.24R
THUNDER BAY    MOCLDY    39  32  75 W14G20    29.37R
SIOUX LOOKOUT  FLURRIES  25  21  86 NW10G20   29.44R WCI  15
TORONTO        MOCLDY    36  21  55 SW21G29   29.66F
BIG TROUT LK   FLURRIES  -6 -11  77 N5        29.55R WCI -17
PICKLE LAKE    NOT AVBL
DRYDEN         CLOUDY    27  23  86 NW13G21   29.45R WCI  16
KENORA         FLURRIES  27  23  86 NW10      29.50R WCI  17
$$
                *** MANITOBA***

CITY           SKY/WX    TMP DP  RH WIND       PRES   REMARKS
BRANDON        PTCLDY    23  19  86 SW9       29.58R WCI  13
DAUPHIN        MOCLDY    19  18  93 N3        29.59R
ISLAND LAKE    NOT AVBL
PILOT MOUND      N/A     32  27  80 W10         N/A  WCI  24
THE PAS        FLURRIES   9   3  78 E7        29.63R WCI  -3
THOMPSON       CLOUDY    -2  -6  84 NE6       29.72R WCI -14
WINNIPEG       CLOUDY    30  28  93 VRB2      29.55R
LYNN LAKE      CLOUDY    -4  -6  92 E7        29.68R WCI -18
CHURCHILL      FLURRIES   3   0  85 NE7       29.83R WCI  -9
GILLAM         FLURRIES   1  -2  85 NE8       29.73R WCI -12
$$
                ***SASKATCHEWAN***

CITY           SKY/WX    TMP DP  RH WIND       PRES   REMARKS
ESTEVAN        PTCLDY    23  19  86 SW9       29.64R WCI  13
KINDERSLEY     MOCLDY    25  19  80 SW5       29.58R WCI  19
LLOYDMINSTER   MOCLDY    25  21  86 W10       29.51R WCI  15
PRINCE ALBERT  CLOUDY    30  25  80 W7        29.52R WCI  23
REGINA         CLEAR     21  19  93 W12       29.59R WCI   9
YORKTON        CLOUDY    27  23  86 SW6       29.55R WCI  20
N. BATTLEFORD  MOCLDY    23  18  80 W5        29.55R WCI  17
LA RONGE       LGT SNOW  10   9  92 N6        29.56R WCI   1
SASKATOON      CLEAR     19  18  93 SW8       29.56R WCI   9
SWIFT CURRENT  CLOUDY    27  21  80 SW13      29.59R WCI  16
$$
NOTE: THESE ARE AUTOMATED STATIONS WITH LIMITED QUALITY CONTROL
      "FAIR" INDICATES FEW OR NO CLOUDS BELOW 12,000 FEET WITH NO
      SIGNIFICANT WEATHER AND/OR OBSTRUCTIONS TO VISIBILITY.
      SKY/WX - SKY CONDITION AND SIGNIFICANT WEATHER.
      TMP - AIR TEMPERATURE.    DP   - DEWPOINT TEMPERATURE.
      RH  - RELATIVE HUMIDITY.  PRES - PRESSURE.
      HX  - HEAT INDEX.         WCI  - WIND CHILL INDEX.
$



USA.gov is the U.S. government's official web portal to all federal, state and local government web resources and services.